When you browse on this site, cookies collect data to enhance your experience and personalize the content and advertising you see.
Visit our Privacy Policy to learn more. By continuing to use the site, you agree to this use of cookies and data.
  • en France
  • Liste des pays
  • À 7 jours
  • Température de l'eau
  • Carte satellitaire
  • Carte météo
  • Widgets météo
  • user-avatar
    Se connecter

    Météo par heure à Zapotlán de Juárez

    Ce jour, 18 Juillet, Jeudi

    Heure Température Précipitation Vent Pression Humidité
    00:00 +13°C° 0 mm 1 m/s 577 mmHg 89%
    01:00 +13°C° 0 mm 1 m/s 576 mmHg 89%
    02:00 +13°C° 0 mm 1 m/s 576 mmHg 89%
    03:00 +12°C° 0 mm 1 m/s 576 mmHg 90%
    04:00 +12°C° 0 mm 1 m/s 576 mmHg 90%
    05:00 +12°C° 0 mm 1 m/s 576 mmHg 90%
    06:00 +14°C° 0 mm 1 m/s 577 mmHg 83%
    07:00 +15°C° 0 mm 1 m/s 578 mmHg 76%
    08:00 +18°C° 0 mm 1 m/s 579 mmHg 69%
    09:00 +19°C° 0 mm 2 m/s 579 mmHg 60%
    10:00 +20°C° 0 mm 2 m/s 580 mmHg 52%
    11:00 +22°C° 0 mm 3 m/s 580 mmHg 44%
    12:00 +22°C° 0 mm 3 m/s 580 mmHg 44%
    13:00 +23°C° 0 mm 4 m/s 579 mmHg 44%
    14:00 +23°C° 0 mm 5 m/s 579 mmHg 44%
    15:00 +22°C° 0.6 mm 4 m/s 578 mmHg 53%
    16:00 +20°C° 0.6 mm 4 m/s 577 mmHg 62%
    17:00 +19°C° 0.6 mm 4 m/s 577 mmHg 71%
    18:00 +17°C° 0.9 mm 4 m/s 577 mmHg 76%
    19:00 +16°C° 0.9 mm 3 m/s 577 mmHg 81%
    20:00 +14°C° 0.9 mm 3 m/s 576 mmHg 86%
    21:00 +15°C° 0.2 mm 2 m/s 577 mmHg 87%
    22:00 +15°C° 0.2 mm 2 m/s 577 mmHg 87%
    23:00 +15°C° 0.2 mm 2 m/s 577 mmHg 87%

    Demain, 19 Juillet, Vendredi

    Heure Température Précipitation Vent Pression Humidité
    00:00 +14°C° 0.3 mm 1 m/s 576 mmHg 88%
    01:00 +14°C° 0.3 mm 1 m/s 576 mmHg 88%
    02:00 +14°C° 0.3 mm 1 m/s 576 mmHg 89%
    03:00 +14°C° 0.1 mm 1 m/s 576 mmHg 89%
    04:00 +14°C° 0.1 mm 1 m/s 576 mmHg 89%
    05:00 +14°C° 0.1 mm 1 m/s 575 mmHg 89%
    06:00 +14°C° 0.1 mm 1 m/s 576 mmHg 85%
    07:00 +15°C° 0.1 mm 1 m/s 577 mmHg 81%
    08:00 +16°C° 0.1 mm 1 m/s 578 mmHg 77%
    09:00 +19°C° 0.7 mm 1 m/s 578 mmHg 72%
    10:00 +20°C° 0.7 mm 1 m/s 578 mmHg 66%
    11:00 +20°C° 0.7 mm 2 m/s 579 mmHg 61%
    12:00 +21°C° 1.6 mm 3 m/s 578 mmHg 61%
    13:00 +21°C° 1.6 mm 3 m/s 578 mmHg 61%
    14:00 +21°C° 1.6 mm 4 m/s 577 mmHg 61%
    15:00 +20°C° 1.4 mm 4 m/s 577 mmHg 67%
    16:00 +19°C° 1.4 mm 4 m/s 576 mmHg 72%
    17:00 +18°C° 1.4 mm 3 m/s 576 mmHg 78%
    18:00 +17°C° 1.7 mm 3 m/s 576 mmHg 82%
    19:00 +16°C° 1.7 mm 2 m/s 576 mmHg 85%
    20:00 +15°C° 1.7 mm 1 m/s 576 mmHg 89%
    21:00 +15°C° 0.3 mm 1 m/s 576 mmHg 89%
    22:00 +14°C° 0.3 mm 1 m/s 576 mmHg 89%
    23:00 +13°C° 0.3 mm 0 m/s 576 mmHg 90%

    Après-demain, 20 Juillet, Samedi

    Heure Température Précipitation Vent Pression Humidité
    00:00 +13°C° 0 mm 0 m/s 576 mmHg 90%
    01:00 +12°C° 0 mm 0 m/s 575 mmHg 91%
    02:00 +12°C° 0 mm 0 m/s 575 mmHg 92%
    03:00 +12°C° 0 mm 0 m/s 575 mmHg 91%
    04:00 +12°C° 0 mm 0 m/s 575 mmHg 91%
    05:00 +12°C° 0 mm 0 m/s 575 mmHg 90%
    06:00 +13°C° 0 mm 0 m/s 576 mmHg 84%
    07:00 +15°C° 0 mm 0 m/s 577 mmHg 78%
    08:00 +16°C° 0 mm 0 m/s 578 mmHg 72%
    09:00 +18°C° 0 mm 0 m/s 578 mmHg 65%
    10:00 +19°C° 0 mm 0 m/s 578 mmHg 58%
    11:00 +21°C° 0 mm 0 m/s 579 mmHg 51%
    12:00 +23°C° 0.2 mm 1 m/s 578 mmHg 52%
    13:00 +23°C° 0.2 mm 2 m/s 578 mmHg 52%
    14:00 +22°C° 0.2 mm 3 m/s 577 mmHg 53%
    15:00 +21°C° 0.5 mm 3 m/s 577 mmHg 59%
    16:00 +20°C° 0.5 mm 4 m/s 576 mmHg 66%
    17:00 +19°C° 0.5 mm 4 m/s 576 mmHg 73%
    18:00 +17°C° 0.2 mm 4 m/s 576 mmHg 77%
    19:00 +15°C° 0.2 mm 4 m/s 576 mmHg 82%
    20:00 +14°C° 0.2 mm 3 m/s 576 mmHg 87%
    21:00 +13°C° 0 mm 3 m/s 576 mmHg 88%
    22:00 +14°C° 0 mm 2 m/s 576 mmHg 88%
    23:00 +14°C° 0 mm 2 m/s 576 mmHg 89%

    21 Juillet, Dimanche

    Heure Température Précipitation Vent Pression Humidité
    00:00 +14°C° 0 mm 1 m/s 576 mmHg 89%
    01:00 +13°C° 0 mm 1 m/s 575 mmHg 90%
    02:00 +13°C° 0 mm 1 m/s 575 mmHg 90%
    03:00 +13°C° 0 mm 1 m/s 575 mmHg 90%
    04:00 +11°C° 0 mm 0 m/s 575 mmHg 90%
    05:00 +11°C° 0 mm 0 m/s 575 mmHg 90%
    06:00 +14°C° 0 mm 1 m/s 576 mmHg 82%
    07:00 +16°C° 0 mm 1 m/s 577 mmHg 75%
    08:00 +18°C° 0 mm 1 m/s 578 mmHg 68%
    09:00 +20°C° 0.2 mm 1 m/s 578 mmHg 63%
    10:00 +21°C° 0.2 mm 1 m/s 579 mmHg 58%
    11:00 +22°C° 0.2 mm 1 m/s 579 mmHg 53%
    12:00 +21°C° 1.7 mm 2 m/s 579 mmHg 55%
    13:00 +21°C° 1.7 mm 2 m/s 578 mmHg 57%
    14:00 +21°C° 1.7 mm 2 m/s 578 mmHg 60%
    15:00 +19°C° 2.6 mm 3 m/s 577 mmHg 69%
    16:00 +18°C° 2.6 mm 3 m/s 576 mmHg 78%
    17:00 +16°C° 2.6 mm 3 m/s 576 mmHg 86%
    18:00 +16°C° 2.4 mm 2 m/s 576 mmHg 87%
    19:00 +16°C° 2.4 mm 2 m/s 576 mmHg 87%
    20:00 +15°C° 2.4 mm 1 m/s 577 mmHg 88%
    21:00 +15°C° 1.2 mm 1 m/s 577 mmHg 88%
    22:00 +15°C° 1.2 mm 1 m/s 577 mmHg 88%
    23:00 +15°C° 1.2 mm 1 m/s 577 mmHg 88%

    22 Juillet, Lundi

    Heure Température Précipitation Vent Pression Humidité
    00:00 +14°C° 0.1 mm 0 m/s 577 mmHg 87%
    01:00 +14°C° 0.1 mm 0 m/s 577 mmHg 86%
    02:00 +14°C° 0.1 mm 0 m/s 576 mmHg 85%
    03:00 +13°C° 0 mm 0 m/s 576 mmHg 86%
    04:00 +13°C° 0 mm 0 m/s 576 mmHg 86%
    05:00 +12°C° 0 mm 0 m/s 576 mmHg 87%
    06:00 +14°C° 0 mm 0 m/s 577 mmHg 81%
    07:00 +15°C° 0 mm 0 m/s 578 mmHg 75%
    08:00 +17°C° 0 mm 0 m/s 579 mmHg 69%
    09:00 +20°C° 0.6 mm 1 m/s 579 mmHg 63%
    10:00 +21°C° 0.6 mm 1 m/s 579 mmHg 58%
    11:00 +21°C° 0.6 mm 2 m/s 580 mmHg 53%
    12:00 +21°C° 1.1 mm 2 m/s 579 mmHg 56%
    13:00 +21°C° 1.1 mm 3 m/s 579 mmHg 58%
    14:00 +21°C° 1.1 mm 4 m/s 578 mmHg 61%
    15:00 +20°C° 0.9 mm 4 m/s 578 mmHg 64%
    16:00 +19°C° 0.9 mm 4 m/s 577 mmHg 68%
    17:00 +18°C° 0.9 mm 3 m/s 577 mmHg 71%
    18:00 +17°C° 0.2 mm 3 m/s 577 mmHg 76%
    19:00 +17°C° 0.2 mm 2 m/s 577 mmHg 80%
    20:00 +16°C° 0.2 mm 1 m/s 577 mmHg 84%
    21:00 +15°C° 0.1 mm 1 m/s 577 mmHg 84%
    22:00 +15°C° 0.1 mm 1 m/s 578 mmHg 84%
    23:00 +15°C° 0.1 mm 1 m/s 578 mmHg 85%

    23 Juillet, Mardi

    Heure Température Précipitation Vent Pression Humidité
    00:00 +14°C° 0 mm 1 m/s 577 mmHg 85%
    01:00 +14°C° 0 mm 1 m/s 577 mmHg 86%
    02:00 +14°C° 0 mm 1 m/s 576 mmHg 86%
    03:00 +13°C° 0 mm 1 m/s 576 mmHg 86%
    04:00 +13°C° 0 mm 1 m/s 576 mmHg 86%
    05:00 +13°C° 0 mm 1 m/s 576 mmHg 86%
    06:00 +14°C° 0 mm 1 m/s 577 mmHg 80%
    07:00 +16°C° 0 mm 1 m/s 578 mmHg 74%
    08:00 +18°C° 0 mm 1 m/s 579 mmHg 68%
    09:00 +19°C° 0.1 mm 1 m/s 579 mmHg 63%
    10:00 +21°C° 0.1 mm 1 m/s 579 mmHg 57%
    11:00 +22°C° 0.1 mm 1 m/s 580 mmHg 52%
    12:00 +21°C° 1.1 mm 2 m/s 579 mmHg 56%
    13:00 +21°C° 1.1 mm 3 m/s 578 mmHg 59%
    14:00 +21°C° 1.1 mm 4 m/s 578 mmHg 63%
    15:00 +20°C° 1.5 mm 4 m/s 577 mmHg 66%
    16:00 +19°C° 1.5 mm 4 m/s 577 mmHg 70%
    17:00 +18°C° 1.5 mm 4 m/s 577 mmHg 74%
    18:00 +17°C° 0.3 mm 4 m/s 577 mmHg 77%
    19:00 +16°C° 0.3 mm 3 m/s 577 mmHg 80%
    20:00 +14°C° 0.3 mm 3 m/s 577 mmHg 83%
    21:00 +14°C° 0 mm 2 m/s 577 mmHg 85%
    22:00 +14°C° 0 mm 2 m/s 577 mmHg 86%
    23:00 +14°C° 0 mm 2 m/s 577 mmHg 87%
    Voir plus